Погода в Чаочжоу

Китай     23°39′25″N   116°37′09″E
темп.,
°C
ветер,
м/с
пор.,
м/с
влажн.,
%
обл.,
%
осадки,
мм/ч
давл.,
гПа
погр.,
м
27 января, ср
ср2723:00+14ю11810 0.0 101923
02:00+13зсз11830 0.0 101823
05:00+12ссз22870 0.0 101929
08:00+13ссз12800 0.0 102095
11:00+20всв11585 0.0 1020723
14:00+22ююв43513 0.0 10171259
17:00+18ююв447065 0.0 1016385
20:00+14ююв128539 0.0 101844
28 января, чт
чт2823:00+14ю118280 0.0 1019138
02:00+12з119242 0.0 102022
05:00+12ссз23930 0.0 102048
08:00+14ссз46800 0.0 1023213
11:00+20ссз67470 0.0 10231005
14:00+23ссз56370 0.0 10211585
17:00+21с45400 0.0 10211474
20:00+14сз22590 0.0 102459
29 января, пт
пт2923:00+12сз12610 0.0 102525
02:00+11ссз226113 0.0 102580
05:00+11ссз116380 0.0 102533
08:00+11ссз116655 0.0 1026112
11:00+16юв115226 0.0 1026978
14:00+19ююв424516 0.0 10231352
17:00+14ююв565721 0.0 1022552
20:00+9ю227310 0.0 1024113
30 января, сб
сб3023:00+8юз11770 0.0 102523
02:00+7з11800 0.0 102522
05:00+6ююз01830 0.0 102422
08:00+8в01750 0.0 102693
11:00+15ююв22390 0.0 1025586
14:00+19ююв32270 0.0 1022929
17:00+16юв44550 0.0 1021399
20:00+11ююв12810 0.0 102329
31 января, вс
вс3123:00+10зюз11880 0.0 102422
02:00+9зсз11890 0.0 102322
05:00+9ссз22860 0.0 102322
08:00+11ссз11740 0.0 102435
11:00+18ююв22470 0.0 1024625
14:00+22ююв33380 0.0 10211023
17:00+18юв34600 0.0 1020339
20:00+13зюз01790 0.0 102123